This is the latest recevied weather packets stored in our database for station/object AA7VG. If no packets are shown the sender has not sent any weather packets the latest 10 day(s).
| Time | Temp. | Humidity | Pressure | Rain* | Wind** | Luminosity | Snow |
|---|---|---|---|---|---|---|---|
| 1777994600 | 6.67° C | 42% | 1015.6 hPa | 0 mm | - | - | - |
| 1777994300 | 6.67° C | 42% | 1015.8 hPa | 0 mm | - | - | - |
| 1777993997 | 6.11° C | 43% | 1015.9 hPa | 0 mm | - | - | - |
| 1777993694 | 6.11° C | 43% | 1015.8 hPa | 0 mm | - | - | - |
| 1777993391 | 6.11° C | 44% | 1015.8 hPa | 0 mm | - | - | - |
| 1777993085 | 5.56° C | 45% | 1015.8 hPa | 0 mm | - | - | - |
| 1777992784 | 5.56° C | 45% | 1016.1 hPa | 0 mm | - | - | - |
| 1777992481 | 5.56° C | 45% | 1015.8 hPa | 0 mm | - | - | - |
| 1777992180 | 5° C | 49% | 1015.6 hPa | 0 mm | - | - | - |
| 1777991876 | 4.44° C | 49% | 1015.9 hPa | 0 mm | - | - | - |
| 1777991574 | 4.44° C | 49% | 1015.8 hPa | 0 mm | - | - | - |
| 1777991270 | 3.89° C | 52% | 1015.6 hPa | 0 mm | - | - | - |
| 1777990967 | 3.33° C | 54% | 1015.5 hPa | 0 mm | - | - | - |
| 1777990665 | 3.33° C | 56% | 1015.6 hPa | 0 mm | - | - | - |
| 1777990363 | 2.78° C | 56% | 1015.6 hPa | 0 mm | - | - | - |
| 1777990058 | 2.78° C | 60% | 1015.6 hPa | 0 mm | - | - | - |
| 1777989755 | 2.22° C | 61% | 1015.6 hPa | 0 mm | - | - | - |
| 1777989452 | 2.22° C | 61% | 1015.5 hPa | 0 mm | - | - | - |
| 1777989148 | 1.67° C | 63% | 1015.6 hPa | 0 mm | - | - | - |
| 1777988844 | 1.67° C | 64% | 1015.5 hPa | 0 mm | - | - | - |
| 1777988542 | 1.67° C | 65% | 1015.6 hPa | 0 mm | - | - | - |
| 1777988238 | 1.11° C | 66% | 1015.5 hPa | 0 mm | - | - | - |
| 1777987935 | 0.56° C | 66% | 1015.3 hPa | 0 mm | - | - | - |
| 1777987630 | 0.56° C | 68% | 1015.8 hPa | 0 mm | - | - | - |
| 1777987328 | 0.56° C | 70% | 1015.4 hPa | 0 mm | - | - | - |
* Rain latest hour (hover to see other rain measurements)
** Current wind speed in m/s (hover to see current wind gust speed)